Вернуться в каталог

COSMOS 2251 DEB

АктивенVLEO
NORAD 40794·DEBRIS·🇷🇺 Russia

Запущен Jun 16, 1993 с Plesetsk Cosmodrome

Loading…

Ближайшие Пролёты (ближайшие 24 часа)

TLE

УстаревшееSource: Space-Track

Эпоха: Aug 29, 2026, 22:39 UTC

1 40794U 93036BVX 26241.94407946  .00059610  00000-0  30720-2 0  9998
2 40794  73.9696 309.6047 0011525 352.0804 182.6636 15.16024810658370

Отслеживайте COSMOS 2251 DEB в реальном времени с AllMySat

Download on the App Store